Location: Newark
(41.0400°S, 62.7845°W)
Time: 07:41:37
(UTC+00:00)

Envisat - Pass Details

Date: 26 October 2021
Orbit: 764 x 766 km, 98.2° (Epoch: 30 November)

Event Time Altitude Azimuth Distance (km) Brightness Sun altitude
Rises 08:27:27 0° 12° (NNE) 3,222 6.1 -7.6°
Reaches altitude 10° 08:29:44 10° 11° (N) 2,304 5.4 -7.2°
Maximum altitude 08:34:50 82° 283° (WNW) 787 3.0 -6.3°
Drops below altitude 10° 08:40:00 10° 195° (SSW) 2,335 5.6 -5.4°
Sets 08:42:20 0° 193° (SSW) 3,269 6.4 -5.0°
